Location: Brasstown Bald
(34.8693°N, 83.8103°W)
Time: 11:21:20
(UTC-04:00)

Amateur Radio Satellites - All Passes

Search period start: 29 March 2017 10:51
Search period end: 30 March 2017 10:51
Location: Brasstown Bald, 34.8693°N, 83.8103°W

Satellite Date Start Highest point End Downlink Frequencies (MHz)
Time Altitude Azimuth
PRISM 29 Mar 10:51:29 10:55:24 47° 260° (W) 10:59:20 437.425
UWE-3 29 Mar 10:55:43 10:58:50 20° 291° (WNW) 11:01:55 435.000/436.395/437.385
RS-15 29 Mar 10:55:44 11:00:58 14° 96° (E) 11:06:14 29.354- 29.394
SRMSAT 29 Mar 10:59:07 11:02:59 18° 175° (S) 11:06:52 437.500
UNISAT 6 29 Mar 10:59:47 11:04:29 88° 249° (WSW) 11:09:10 437.425
Oscar 11 29 Mar 11:15:46 11:19:26 28° 289° (WNW) 11:23:05 .
HO-68 29 Mar 11:16:52 11:20:12 14° 303° (WNW) 11:23:32 435.675
POLYITAN 1 29 Mar 11:24:20 11:25:37 11° 66° (ENE) 11:26:55 437.675
QB50P2 29 Mar 11:28:10 11:30:21 14° 67° (ENE) 11:32:30 145.880/145.840
ZACube-1 29 Mar 11:30:08 11:32:27 15° 293° (WNW) 11:34:44 437.345
DELFI C3 29 Mar 11:34:48 11:38:41 53° 285° (WNW) 11:42:35 145.870
DUCHIFAT 1 29 Mar 11:35:52 11:37:41 13° 66° (ENE) 11:39:29 145.980
AIST 2D 29 Mar 11:48:55 11:52:08 34° 74° (ENE) 11:55:22 435.315
FO-29 29 Mar 12:12:34 12:19:51 42° 262° (W) 12:26:49 435.910
LO-87 29 Mar 12:12:53 12:16:21 40° 99° (E) 12:19:45 145.935 - 145.965
NANOSAT C BR1 29 Mar 12:21:02 12:25:08 48° 74° (ENE) 12:29:15 145.865
ESTCUBE 1 29 Mar 12:26:56 12:30:55 30° 97° (E) 12:34:53 437.505/2401.250
EO-79 29 Mar 12:27:31 12:31:44 64° 76° (ENE) 12:35:59 145.935-145.965
TIGRISAT 29 Mar 12:29:38 12:30:21 10° 269° (W) 12:31:05 435.000
SRMSAT 29 Mar 12:47:35 12:51:28 18° 185° (S) 12:55:20 437.500
POLYITAN 1 29 Mar 12:56:42 13:00:53 54° 260° (W) 13:05:07 437.675
RS-15 29 Mar 12:59:23 13:11:11 75° 114° (ESE) 13:23:28 29.354- 29.394
QB50P2 29 Mar 13:01:38 13:05:43 43° 261° (W) 13:09:48 145.880/145.840
DUCHIFAT 1 29 Mar 13:08:47 13:12:53 47° 260° (W) 13:17:01 145.980
BUGSAT 1 29 Mar 13:11:50 13:15:58 54° 74° (ENE) 13:20:07 437.445
AIST 2D 29 Mar 13:24:53 13:25:28 10° 267° (W) 13:26:02 435.315
VELOX 1 29 Mar 13:25:30 13:29:42 39° 99° (E) 13:33:51 145.980
SPROUT 29 Mar 13:45:34 13:49:49 61° 100° (E) 13:54:00 437.525
LO-87 29 Mar 13:48:46 13:49:22 10° 293° (WNW) 13:49:57 145.935 - 145.965
NANOSAT C BR1 29 Mar 13:59:38 14:01:04 11° 268° (W) 14:02:29 145.865
Oscar 19 29 Mar 14:00:26 14:05:25 55° 73° (ENE) 14:10:25 437.125/150
ESTCUBE 1 29 Mar 14:04:07 14:07:30 21° 291° (WNW) 14:10:53 437.505/2401.250
SO-50 29 Mar 14:22:24 14:26:50 44° 115° (ESE) 14:31:13 436.795
50 SAT 29 Mar 14:25:20 14:28:44 49° 285° (WNW) 14:32:07 437.505
DX 1 29 Mar 14:27:55 14:32:20 82° 104° (ESE) 14:36:42 434.975-435.025
NO-84 29 Mar 14:34:58 14:38:11 81° 229° (SW) 14:41:43 435.350 FM
SRMSAT 29 Mar 14:38:07 14:39:53 11° 195° (SSW) 14:41:40 437.500
Gurwin Techsat 1B 29 Mar 14:40:22 14:45:40 77° 75° (ENE) 14:51:00 435.225
UKube-1 29 Mar 15:01:30 15:05:46 57° 285° (WNW) 15:09:59 .
VELOX 1 29 Mar 15:02:59 15:05:47 16° 293° (WNW) 15:08:33 145.980
RS-15 29 Mar 15:14:13 15:24:49 34° 317° (NW) 15:35:43 29.354- 29.394
Oscar 19 29 Mar 15:42:23 15:45:01 14° 267° (W) 15:47:40 437.125/150
AO-7 29 Mar 15:44:30 15:52:31 55° 67° (ENE) 16:00:32 .
ITAMSAT 1 29 Mar 15:54:19 15:59:28 63° 74° (ENE) 16:04:39 435.822/435.867
SO-50 29 Mar 16:04:10 16:07:28 19° 310° (NW) 16:10:45 436.795
MOZHAYETS 4 29 Mar 16:10:33 16:13:50 19° 95° (E) 16:17:05
BEESAT 29 Mar 16:21:53 16:26:38 67° 102° (ESE) 16:31:20 436.000
Gurwin Techsat 1B 29 Mar 16:25:24 16:26:06 10° 269° (W) 16:26:47 435.225
ITUPSAT 1 29 Mar 16:40:23 16:45:09 78° 284° (WNW) 16:49:53 437.325
O/OREOS (USA 219) 29 Mar 16:53:12 16:57:36 55° 106° (ESE) 17:02:04 437.305
KKS-1 29 Mar 17:05:00 17:07:25 14° 93° (E) 17:09:50 437.445
CUBESAT XI-V 29 Mar 17:12:20 17:14:50 14° 93° (E) 17:17:21 437.345
STARS 29 Mar 17:32:27 17:34:01 12° 92° (E) 17:35:34 437.465
ITAMSAT 1 29 Mar 17:37:01 17:39:17 13° 268° (W) 17:41:34 435.822/435.867
RS-15 29 Mar 17:37:10 17:43:02 14° 351° (N) 17:48:55 29.354- 29.394
AO-7 29 Mar 17:38:33 17:45:30 29° 263° (W) 17:52:29 .
MOZHAYETS 4 29 Mar 17:46:57 17:51:00 33° 288° (WNW) 17:55:03
PCSat 29 Mar 17:55:24 17:57:59 13° 47° (NE) 18:00:34 145.827
BEESAT 29 Mar 18:02:24 18:03:47 11° 297° (WNW) 18:05:10 436.000
CUTE-I 29 Mar 18:09:31 18:13:36 23° 67° (ENE) 18:17:43 437.470
XW-2F 29 Mar 18:15:59 18:18:40 19° 70° (ENE) 18:21:20 145.980 - 146.000
LilacSat-2 29 Mar 18:23:04 18:26:15 25° 72° (ENE) 18:29:24 437.200
NUDT-PHONESAT 29 Mar 18:30:49 18:33:49 23° 72° (ENE) 18:36:50 437.300
O/OREOS (USA 219) 29 Mar 18:35:17 18:37:21 13° 302° (WNW) 18:39:26 437.305
KKS-1 29 Mar 18:39:54 18:44:08 42° 287° (WNW) 18:48:21 437.445
KAITUO 1B 29 Mar 18:42:09 18:45:31 33° 73° (ENE) 18:48:54 145.475/437.950
XW-2D 29 Mar 18:43:05 18:46:42 45° 75° (ENE) 18:50:21 145.860 - 145.880
CUBESAT XI-V 29 Mar 18:47:56 18:52:24 46° 286° (WNW) 18:56:52 437.345
XW-2B 29 Mar 18:49:02 18:52:44 53° 76° (ENE) 18:56:26 145.730 - 145.750
YUBILEINY 29 Mar 18:50:17 18:58:14 38° 75° (ENE) 19:06:08 435.215
DOVE 4 29 Mar 18:55:33 19:00:14 89° 260° (W) 19:05:16 437.250
XW-2C 29 Mar 18:59:16 19:03:04 76° 78° (ENE) 19:06:52 145.795 - 145.815
STARS 29 Mar 19:06:19 19:10:36 50° 286° (WNW) 19:14:50 437.465
XW-2A 29 Mar 19:22:29 19:24:27 15° 70° (ENE) 19:26:27 145.665 - 145.685
PCSat 29 Mar 19:36:36 19:42:04 85° 245° (WSW) 19:47:29 145.827
CUTE-I 29 Mar 19:48:20 19:53:21 40° 261° (W) 19:58:23 437.470
XW-2F 29 Mar 19:49:36 19:52:38 23° 264° (W) 19:55:41 145.980 - 146.000
HO-68 29 Mar 19:51:00 19:57:51 52° 69° (ENE) 20:04:44 435.675
M-CUBED/EXP-1 PRIME 29 Mar 19:52:17 19:56:51 51° 104° (ESE) 20:01:19 437.505
RS-15 29 Mar 19:54:12 20:02:51 21° 29° (NNE) 20:11:16 29.354- 29.394
AAUSAT CUBESAT 2 29 Mar 19:57:41 19:58:23 10° 66° (ENE) 19:59:05 437.432
LilacSat-2 29 Mar 19:57:54 20:00:29 17° 265° (W) 20:03:02 437.200
Tancredo 1 29 Mar 19:57:59 20:01:07 84° 139° (SE) 20:04:17 437.200
AO-85 29 Mar 20:04:28 20:08:14 26° 113° (ESE) 20:11:47 145.980
NUDT-PHONESAT 29 Mar 20:05:05 20:07:40 18° 265° (W) 20:10:16 437.300
UWE-3 29 Mar 20:13:04 20:16:02 17° 68° (ENE) 20:18:59 435.000/436.395/437.385
ISS 29 Mar 20:13:56 20:17:10 74° 317° (NW) 20:20:25 437.550
KAITUO 1B 29 Mar 20:17:59 20:19:36 12° 267° (W) 20:21:14 145.475/437.950
SEEDS 29 Mar 20:20:12 20:24:09 45° 74° (ENE) 20:28:07 437.485
CUTE 1.7 + AOD 2 29 Mar 20:33:35 20:37:46 75° 258° (WSW) 20:41:59 437.475
Oscar 11 29 Mar 20:33:45 20:34:54 11° 66° (ENE) 20:36:03 .
ZACube-1 29 Mar 20:45:16 20:48:42 22° 70° (ENE) 20:52:05 437.345
YUBILEINY 29 Mar 20:47:02 20:54:56 41° 273° (W) 21:02:51 435.215
CUBEBUG 2 29 Mar 20:52:11 20:56:55 78° 77° (ENE) 21:01:39 437.445
XW-2A 29 Mar 20:54:09 20:56:59 24° 263° (W) 20:59:50 145.665 - 145.685
STRAND 1 29 Mar 21:04:03 21:09:11 89° 103° (ESE) 21:14:16 437.568
AO-73 29 Mar 21:10:42 21:14:52 37° 73° (ENE) 21:18:58 145.935
M-CUBED/EXP-1 PRIME 29 Mar 21:28:01 21:30:48 16° 298° (WNW) 21:33:34 437.505
AAUSAT CUBESAT 2 29 Mar 21:29:20 21:33:20 52° 260° (W) 21:37:21 437.432
Tancredo 1 29 Mar 21:36:19 21:37:37 12° 333° (NNW) 21:38:56 437.200
HO-68 29 Mar 21:40:05 21:45:47 25° 264° (W) 21:51:30 435.675
AO-85 29 Mar 21:44:50 21:48:32 26° 305° (NW) 21:52:03 145.980
UWE-3 29 Mar 21:47:45 21:52:08 41° 262° (W) 21:56:29 435.000/436.395/437.385
ISS 29 Mar 21:53:11 21:54:08 11° 335° (NNW) 21:55:05 437.550
BEESAT 3 29 Mar 21:55:56 21:59:35 40° 114° (ESE) 22:03:18 437.485
SEEDS 29 Mar 21:58:38 22:00:02 11° 268° (W) 22:01:26 437.485
RS-15 29 Mar 22:06:16 22:18:27 65° 56° (ENE) 22:30:01 29.354- 29.394
Oscar 11 29 Mar 22:06:17 22:10:31 56° 260° (W) 22:14:45 .
DELFI C3 29 Mar 22:16:36 22:20:23 49° 75° (ENE) 22:24:10 145.870
BEESAT 2 29 Mar 22:20:01 22:23:21 27° 112° (ESE) 22:26:44 435.950
ZACube-1 29 Mar 22:20:47 22:24:46 30° 263° (W) 22:28:43 437.345
PRISM 29 Mar 22:36:11 22:39:46 28° 97° (E) 22:43:22 437.425
TIGRISAT 29 Mar 22:45:05 22:47:46 16° 93° (E) 22:50:24 435.000
AO-73 29 Mar 22:48:16 22:51:10 17° 266° (W) 22:54:03 145.935
LO-87 29 Mar 22:48:29 22:49:05 10° 67° (ENE) 22:49:40 145.935 - 145.965
UNISAT 6 29 Mar 22:55:42 22:59:13 23° 96° (E) 23:02:38 437.425
SO-50 29 Mar 22:57:39 23:00:40 17° 49° (NE) 23:03:38 436.795
ESTCUBE 1 29 Mar 23:23:52 23:27:01 19° 68° (ENE) 23:30:10 437.505/2401.250
FO-29 29 Mar 23:27:15 23:32:14 32° 96° (E) 23:36:53 435.910
BEESAT 3 29 Mar 23:34:58 23:37:21 15° 310° (NW) 23:39:45 437.485
BEESAT 2 29 Mar 23:58:01 00:01:05 21° 308° (NW) 00:04:11 435.950
PRISM 30 Mar 00:11:50 00:14:51 20° 291° (WNW) 00:17:51 437.425
EO-79 30 Mar 00:17:16 00:19:16 13° 93° (E) 00:21:16 145.935-145.965
LO-87 30 Mar 00:18:44 00:22:06 39° 261° (W) 00:25:31 145.935 - 145.965
VELOX 1 30 Mar 00:19:51 00:23:20 23° 69° (ENE) 00:26:49 145.980
RS-15 30 Mar 00:19:53 00:30:02 33° 256° (WSW) 00:39:48 29.354- 29.394
TIGRISAT 30 Mar 00:20:36 00:24:34 35° 288° (WNW) 00:28:26 435.000
UNISAT 6 30 Mar 00:32:18 00:35:49 24° 290° (WNW) 00:39:16 437.425
SPROUT 30 Mar 00:35:42 00:39:26 29° 71° (ENE) 00:43:10 437.525
SO-50 30 Mar 00:37:02 00:41:20 46° 245° (WSW) 00:45:37 436.795
POLYITAN 1 30 Mar 00:45:07 00:48:48 29° 97° (E) 00:52:28 437.675
QB50P2 30 Mar 00:49:45 00:53:40 36° 98° (E) 00:57:33 145.880/145.840
AIST 2D 30 Mar 00:50:01 00:53:30 71° 102° (ESE) 00:56:57 435.315
50 SAT 30 Mar 00:55:31 00:58:34 30° 73° (ENE) 01:01:39 437.505
DUCHIFAT 1 30 Mar 00:56:11 00:59:58 32° 98° (E) 01:03:42 145.980
ESTCUBE 1 30 Mar 00:59:31 01:03:33 33° 262° (W) 01:07:36 437.505/2401.250
FO-29 30 Mar 01:12:29 01:17:11 27° 294° (WNW) 01:21:34 435.910
DX 1 30 Mar 01:19:56 01:24:03 44° 73° (ENE) 01:28:13 434.975-435.025
NANOSAT C BR1 30 Mar 01:44:04 01:48:11 55° 285° (WNW) 01:52:16 145.865
EO-79 30 Mar 01:51:13 01:55:11 41° 287° (WNW) 01:59:07 145.935-145.965
UKube-1 30 Mar 01:52:08 01:56:25 75° 77° (ENE) 02:00:44 .
VELOX 1 30 Mar 01:55:56 01:59:37 26° 263° (W) 02:03:20 145.980
SPROUT 30 Mar 02:12:13 02:15:19 19° 265° (W) 02:18:26 437.525
Oscar 19 30 Mar 02:15:49 02:20:05 26° 96° (E) 02:24:21 437.125/150
POLYITAN 1 30 Mar 02:21:23 02:24:21 19° 291° (WNW) 02:27:18 437.675
QB50P2 30 Mar 02:26:37 02:29:07 16° 292° (WNW) 02:31:38 145.880/145.840
Tancredo 1 30 Mar 02:27:23 02:29:55 21° 33° (NNE) 02:32:26 437.200
50 SAT 30 Mar 02:30:43 02:31:41 11° 267° (W) 02:32:39 437.505
BUGSAT 1 30 Mar 02:32:07 02:36:10 52° 286° (WNW) 02:40:07 437.445
DUCHIFAT 1 30 Mar 02:32:36 02:35:21 17° 292° (WNW) 02:38:04 145.980
ISS 30 Mar 02:44:37 02:47:29 27° 35° (NE) 02:50:22 437.550
DX 1 30 Mar 02:58:23 03:00:25 13° 267° (W) 03:02:28 434.975-435.025
Gurwin Techsat 1B 30 Mar 03:00:13 03:05:12 40° 99° (E) 03:10:09 435.225
O/OREOS (USA 219) 30 Mar 03:06:25 03:11:00 61° 69° (ENE) 03:15:31 437.305
MOZHAYETS 4 30 Mar 03:10:21 03:12:34 13° 66° (ENE) 03:14:46
BEESAT 30 Mar 03:24:45 03:29:23 52° 73° (ENE) 03:34:01 436.000
ITUPSAT 1 30 Mar 03:43:27 03:48:14 83° 76° (ENE) 03:53:03 437.325
AO-7 30 Mar 03:51:19 03:57:04 20° 94° (E) 04:02:46 .
Oscar 19 30 Mar 03:54:48 03:59:21 32° 290° (WNW) 04:03:55 437.125/150
Tancredo 1 30 Mar 04:03:11 04:06:03 31° 228° (SW) 04:08:55 437.200
ITAMSAT 1 30 Mar 04:11:03 04:15:31 29° 97° (E) 04:19:57 435.822/435.867
ISS 30 Mar 04:21:09 04:23:53 24° 230° (SW) 04:26:35 437.550
Gurwin Techsat 1B 30 Mar 04:40:49 04:44:50 22° 293° (WNW) 04:48:51 435.225
MOZHAYETS 4 30 Mar 04:44:46 04:49:14 51° 260° (W) 04:53:42
O/OREOS (USA 219) 30 Mar 04:49:25 04:49:46 10° 263° (W) 04:50:08 437.305
BEESAT 30 Mar 05:05:10 05:07:24 13° 267° (W) 05:09:40 436.000
KKS-1 30 Mar 05:33:58 05:38:24 72° 257° (WSW) 05:42:54 437.445
AO-7 30 Mar 05:42:09 05:50:24 74° 290° (WNW) 05:58:39 .
CUBESAT XI-V 30 Mar 05:47:23 05:51:57 71° 259° (WSW) 05:56:33 437.345
ITAMSAT 1 30 Mar 05:50:27 05:54:52 29° 291° (WNW) 05:59:15 435.822/435.867
NO-84 30 Mar 05:50:49 05:53:42 46° 130° (SE) 05:56:29 435.350 FM
STARS 30 Mar 05:58:57 06:03:22 89° 259° (W) 06:07:50 437.465
AO-85 30 Mar 06:18:03 06:21:59 81° 244° (WSW) 06:26:07 145.980
BEESAT 3 30 Mar 06:18:18 06:18:48 10° 46° (NE) 06:19:18 437.485
CUTE-I 30 Mar 06:32:17 06:33:12 10° 91° (E) 06:34:06 437.470
M-CUBED/EXP-1 PRIME 30 Mar 06:35:25 06:38:45 31° 66° (ENE) 06:42:21 437.505
JUGNU 30 Mar 06:48:04 06:50:52 14° 169° (SSE) 06:53:39 437.505
DOVE 4 30 Mar 06:57:59 07:02:49 35° 97° (E) 07:07:28 437.250
XW-2F 30 Mar 07:24:16 07:27:49 40° 99° (E) 07:31:20 145.980 - 146.000
NO-84 30 Mar 07:30:33 07:31:24 11° 325° (NW) 07:32:16 435.350 FM
LilacSat-2 30 Mar 07:32:54 07:36:38 60° 100° (E) 07:40:21 437.200
NUDT-PHONESAT 30 Mar 07:37:36 07:41:10 50° 99° (E) 07:44:44 437.300
AO-7 30 Mar 07:37:56 07:41:45 14° 308° (NW) 07:45:33 .
YUBILEINY 30 Mar 07:46:39 07:54:55 49° 89° (E) 08:03:09 435.215
KAITUO 1B 30 Mar 07:50:02 07:53:45 79° 102° (ESE) 07:57:26 145.475/437.950
XW-2D 30 Mar 07:52:43 07:56:27 71° 283° (WNW) 08:00:10 145.860 - 145.880
BEESAT 3 30 Mar 07:52:51 07:56:52 72° 243° (WSW) 08:00:48 437.485
XW-2B 30 Mar 07:58:47 08:02:29 60° 284° (WNW) 08:06:11 145.730 - 145.750
CUTE-I 30 Mar 08:08:23 08:13:44 76° 284° (WNW) 08:19:02 437.470
XW-2C 30 Mar 08:09:18 08:12:51 42° 286° (WNW) 08:16:23 145.795 - 145.815
M-CUBED/EXP-1 PRIME 30 Mar 08:11:08 08:13:20 15° 263° (W) 08:15:37 437.505
STRAND 1 30 Mar 08:16:21 08:21:31 90° 24° (NNE) 08:26:42 437.568
BEESAT 2 30 Mar 08:17:33 08:21:37 79° 61° (ENE) 08:25:38 435.950
XW-2A 30 Mar 08:19:12 08:21:54 22° 96° (E) 08:24:34 145.665 - 145.685
CUTE 1.7 + AOD 2 30 Mar 08:22:14 08:25:38 23° 96° (E) 08:29:01 437.475
PCSat 30 Mar 08:33:14 08:37:05 20° 105° (ESE) 08:40:56 145.827
JUGNU 30 Mar 08:35:17 08:39:07 18° 179° (S) 08:43:00 437.505
DOVE 4 30 Mar 08:36:01 08:40:13 24° 292° (WNW) 08:44:18 437.250
CUBEBUG 2 30 Mar 08:47:38 08:50:45 19° 94° (E) 08:53:48 437.445
SRMSAT 30 Mar 08:59:15 09:01:34 12° 166° (SSE) 09:03:54 437.500
XW-2F 30 Mar 09:00:42 09:01:32 11° 293° (WNW) 09:02:23 145.980 - 146.000
HO-68 30 Mar 09:09:28 09:16:39 75° 104° (ESE) 09:23:49 435.675
AAUSAT CUBESAT 2 30 Mar 09:14:50 09:18:27 28° 97° (E) 09:22:04 437.432
PRISM 30 Mar 09:23:44 09:25:40 13° 66° (ENE) 09:27:36 437.425
FO-29 30 Mar 09:37:04 09:40:49 15° 61° (ENE) 09:44:27 435.910
UWE-3 30 Mar 09:40:42 09:44:49 49° 100° (E) 09:48:49 435.000/436.395/437.385
TIGRISAT 30 Mar 09:41:53 09:43:18 11° 65° (ENE) 09:44:43 435.000
SEEDS 30 Mar 09:42:28 09:46:36 55° 284° (WNW) 09:50:42 437.485
YUBILEINY 30 Mar 09:44:21 09:51:52 32° 286° (WNW) 09:59:25 435.215
UNISAT 6 30 Mar 09:51:46 09:54:38 16° 67° (ENE) 09:57:28 437.425
XW-2A 30 Mar 09:52:32 09:54:26 14° 290° (WNW) 09:56:20 145.665 - 145.685
Oscar 11 30 Mar 09:56:54 10:00:46 32° 97° (E) 10:04:38 .
CUTE 1.7 + AOD 2 30 Mar 09:57:57 10:01:20 24° 289° (WNW) 10:04:43 437.475
ZACube-1 30 Mar 10:11:53 10:16:03 67° 101° (E) 10:20:09 437.345
PCSat 30 Mar 10:14:53 10:20:04 46° 300° (WNW) 10:25:17 145.827
CUBEBUG 2 30 Mar 10:23:41 10:27:22 28° 289° (WNW) 10:30:57 437.445
JUGNU 30 Mar 10:24:05 10:27:24 15° 189° (S) 10:30:44 437.505
AO-73 30 Mar 10:37:49 10:41:57 64° 284° (WNW) 10:46:00 145.935
